Volver al catálogo

FENGYUN 1C DEB

ActivoSSO
NORAD 29935·DEBRIS·🇨🇳 China

Lanzado May 10, 1999 desde Taiyuan Satellite Launch Center

Loading…

Próximos Pases (próximas 24 horas)

TLE

ActualizadoSource: Space-Track

Época: Sep 14, 2026, 10:13 UTC

1 29935U 99025JH  26257.42589304  .00000106  00000-0  68102-4 0  9998
2 29935  98.4235 309.6188 0151354 142.9259 286.7164 14.14344953 14396

Sigue FENGYUN 1C DEB en tiempo real con AllMySat

Download on the App Store